Location: La Tine
(46.4708°N, 7.0525°E)
Time: 08:07:21
(UTC+00:00)

Cosmos 1833 Rocket - Pass Details

Date: 21 January 2021
Orbit: 833 x 839 km, 71.0° (Epoch: 24 February)

Event Time Altitude Azimuth Distance (km) Brightness Sun altitude
Rises 17:30:53 0° 340° (NNW) 3,392 5.9 -12.1°
Reaches altitude 10° 17:34:10 10° 359° (N) 2,454 5.0 -12.7°
Maximum altitude 17:37:57 18° 42° (NE) 1,944 4.1 -13.3°
Enters shadow 17:39:00 17° 56° (NE) 1,988 4.1 -13.5°
